Regional Weather Roundup
Issued by NWS

Home | Current Version | Previous Version | Graphics & Text | Print | Product List | Glossary On
Versions: 1 2 3 4 5 6 7 8 9 10 11 12 13 14 15 16 17 18 19 20 21 22 23 24 25 26 27 28 29 30 31 32 33 34 35 36 37 38 39 40 41 42 43 44 45 46 47 48 49 50
559
ASUS43 KLMK 141502
RWRKY
KENTUCKY REGIONAL WEATHER ROUNDUP
NATIONAL WEATHER SERVICE LOUISVILLE KY
1000 AM EST THU DEC 14 2017

NOTE "FAIR" INDICATES FEW OR NO CLOUDS BELOW 12,000 FEET
WITH NO SIGNIFICANT WEATHER AND/OR OBSTRUCTIONS TO VISIBILITY.

KYZ001>023-026-027-061>063-070>075-141600-
WESTERN AND SOUTH CENTRAL KENTUCKY

CITY           SKY/WX    TMP DP  RH WIND       PRES   REMARKS
PADUCAH        CLOUDY    36  23  59 NE10      30.02R WCI  28
HENDERSON      MOSUNNY   31  22  69 NW6       30.05R WCI  25
OWENSBORO      SUNNY     32  21  64 N7        30.04R WCI  26
HOPKINSVILLE   CLOUDY    35  22  59 N12       30.00R WCI  27
BOWLING GREEN  CLOUDY    36  25  64 N9        30.00R WCI  29
GLASGOW        NOT AVBL
$$

KYZ024-025-028>034-038-045-046-053-141600-
NORTH CENTRAL KENTUCKY

CITY           SKY/WX    TMP DP  RH WIND       PRES   REMARKS
LOUISVILLE/SDF CLOUDY    34  21  59 N10       30.01R WCI  26
LOUISVILLE/LOU CLOUDY    33  21  61 NW7       30.01R WCI  27
FORT KNOX      MOSUNNY   32  20  60 N8        29.97R WCI  25
$$

KYZ035>037-039>044-047>052-055>060-089>105-141600-
NORTHEAST KENTUCKY

CITY           SKY/WX    TMP DP  RH WIND       PRES   REMARKS
LEXINGTON      CLOUDY    32  20  61 N9        29.97R WCI  24
COVINGTON      CLOUDY    25  17  72 N10       29.98R WCI  15
FRANKFORT      CLOUDY    32  17  54 N7        29.97R WCI  26
$$

KYZ054-064>069-076>088-106>120-141600-
SOUTHEAST KENTUCKY

CITY           SKY/WX    TMP DP  RH WIND       PRES   REMARKS
JACKSON        CLOUDY    33  21  61 N6        29.92R WCI  28
LONDON         CLOUDY    36  25  64 N5        29.93R WCI  32
SOMERSET       NOT AVBL
MIDDLESBORO    CLOUDY    38  27  63 N7        29.93R WCI  33
MONTICELLO     CLOUDY    37  27  67 N15       29.97R WCI  28
$$





USA.gov is the U.S. government's official web portal to all federal, state and local government web resources and services.